Miscellaneous Local Product
Issued by NWS North Platte, NE

Home | Current Version | Previous Version | Text Only | Print | Product List | Glossary On
Versions: 1 2 3 4 5 6 7 8 9 10 11 12 13 14 15 16 17 18 19 20 21 22 23 24 25 26 27 28 29 30 31 32 33 34 35 36 37 38 39 40 41 42 43 44 45 46 47 48 49 50
000
AXUS43 KLBF 170110
MISLBF


WESTERN AND NORTH CENTRAL NEBRASKA HOURLY WEATHER ROUNDUP
NATIONAL WEATHER SERVICE NORTH PLATTE NE
800 PM CDT THU APR 16 2015

***STATIONS NOT REPORTING VARIABLES SUCH AS SKY/WEATHER OR
PRESSURE ARE PROVIDED BY THE NEBRASKA DEPARTMENT OF
ROADS...RAWS...AND APRS NETWORKS...AND ARE NOT UNDER
NATIONAL WEATHER SERVICE QUALITY CONTROL***

...OBSERVATIONS IN AND NEAR THE EASTERN PANHANDLE OF NEBRASKA...

CITY           SKY/WX    TMP DP  RH WIND       PRES   REMARKS
PINE RIDGE     CLOUDY    56  36  47 NE13      30.13F
CHADRON        CLOUDY    52  38  58 N14       30.14F
ALLIANCE       CLOUDY    53  39  59 NE16      30.11R
SIDNEY         CLOUDY    47  43  86 N9        30.10S
WHITECLAY        N/A     53  36  52 SE8         N/A
CRESCENT LAKE    N/A     52  41  67 NE13G22     N/A
$$

...OBSERVATIONS IN NORTH CENTRAL NEBRASKA...

CITY           SKY/WX    TMP DP  RH WIND       PRES   REMARKS
VALENTINE      CLOUDY    63  42  46 N7        30.09F
THEDFORD       CLOUDY    57  52  84 NE7       30.10S
AINSWORTH      CLOUDY    58  51  78 CALM      30.10S
O`NEILL        CLOUDY    60  51  72 N3        30.09F
ORD            CLOUDY    58  52  80 N7        30.06F
BROKEN BOW     CLOUDY    59  54  83 N7        30.06S
BROWNLEE         N/A     58  51  76 E6          N/A
SPRINGVIEW       N/A     64  48  57 CALM        N/A
BREWSTER         N/A     62  51  66 NE7         N/A
ROSE             N/A     59  55  87 CALM        N/A
NEWPORT          N/A     59  50  71 SE3         N/A
SARGENT          N/A     57  53  85 NE3G13      N/A
COMSTOCK         N/A     64  57  80 E12         N/A
EWING            N/A     60  54  80 CALM        N/A
$$

...OBSERVATIONS IN SOUTHWEST NEBRASKA AND FAR NORTHEAST COLORADO...

CITY           SKY/WX    TMP DP  RH WIND       PRES   REMARKS
WRAY           CLOUDY    52  51  99 NE12      30.06R
HOLYOKE        CLOUDY    54  50  87 NE10      30.06S
IMPERIAL       CLOUDY    53  49  86 NE12      30.05R
OGALLALA       CLOUDY    54  49  84 NE10      30.06S
NORTH PLATTE   CLOUDY    58  50  75 E12       30.04F
MCCOOK         CLOUDY    57  53  86 NE12      30.02R FOG
LEXINGTON      CLOUDY    58  56  92 NE9       30.03F FOG
SUTHERLAND       N/A     52  49  87 E7          N/A
BRADY            N/A     58  52  81 N3          N/A
GOTHENBURG       N/A     57  51  82 E6          N/A
CALLAWAY         N/A     58  55  89 E5          N/A
$$

...NORTH PLATTE AREA...

CITY           SKY/WX    TMP DP  RH WIND       PRES   REMARKS
AIRPORT        CLOUDY    58  50  75 E12       30.04F
DOWNTOWN         N/A     58  51  79 E3          N/A
$$

...SOME WEATHER OBSERVATIONS FROM AROUND THE REGION...

CITY           SKY/WX    TMP DP  RH WIND       PRES   REMARKS
DENVER         SNOW      33  32  96 NW14      30.11S VSB 1/4 WCI  23
LARAMIE        LGT SNOW  29  28  96 NW7       30.16R FOG     WCI  22
CHEYENNE       CLOUDY    34  31  88 N16G22    30.14R WCI  24
SCOTTSBLUFF    CLOUDY    48  43  82 W5        30.14R
RAPID CITY     MOCLDY    52  33  48 NW14      30.17F
PIERRE         MOCLDY    64  36  35 N15       30.08S
WINNER         CLOUDY    67  42  40 N12       30.08S
SIOUX FALLS    CLOUDY    67  48  50 SW7       30.05R
OMAHA          MOCLDY    67  51  56 N7        30.03F
GRAND ISLAND   CLOUDY    63  50  62 E9        30.06R
KANSAS CITY    MOCLDY    70  56  61 E9        30.01S
WICHITA        CLOUDY    67  55  65 N12       29.97R
HAYS           CLOUDY    55  48  76 E9        30.00F
LIBERAL        CLOUDY    61  50  67 E7        29.87S
GOODLAND       CLOUDY    52  50  93 NE15      30.00F
$$



USA.gov is the U.S. government's official web portal to all federal, state and local government web resources and services.